This is the latest recevied weather packets stored in our database for station/object SA7AHC. If no packets are shown the sender has not sent any weather packets the latest 10 day(s).
| Time | Temp. | Humidity | Pressure | Rain* | Wind** | Luminosity | Snow |
|---|---|---|---|---|---|---|---|
| 1778004148 | 11.11° C | 34% | 1010.6 hPa | 0 mm | - | 16 W/m² | - |
| 1778003541 | 11.67° C | 31% | 1010.3 hPa | 0 mm | - | 18 W/m² | - |
| 1778002929 | 12.22° C | 29% | 1010.3 hPa | 0 mm | - | 21 W/m² | - |
| 1778002331 | 12.22° C | 28% | 1010.4 hPa | 0 mm | - | 23 W/m² | - |
| 1778001728 | 12.78° C | 28% | 1010.4 hPa | 0 mm | - | 26 W/m² | - |
| 1778001125 | 12.78° C | 26% | 1010.4 hPa | 0 mm | - | 28 W/m² | - |
| 1777999925 | 13.33° C | 25% | 1010.4 hPa | 0 mm | - | 185 W/m² | - |
| 1777999329 | 13.33° C | 26% | 1010.4 hPa | 0 mm | - | 213 W/m² | - |
| 1777998727 | 13.33° C | 25% | 1010.4 hPa | 0 mm | - | 243 W/m² | - |
| 1777998126 | 13.33° C | 27% | 1010.3 hPa | 0 mm | - | 271 W/m² | - |
| 1777997528 | 14.44° C | 25% | 1010.4 hPa | 0 mm | - | 297 W/m² | - |
| 1777996921 | 13.89° C | 24% | 1010.3 hPa | 0 mm | - | 320 W/m² | - |
| 1777996319 | 14.44° C | 27% | 1010.4 hPa | 0 mm | - | 346 W/m² | - |
| 1777995719 | 14.44° C | 25% | 1010.4 hPa | 0 mm | - | 373 W/m² | - |
| 1777995120 | 14.44° C | 24% | 1010.5 hPa | 0 mm | - | 396 W/m² | - |
| 1777994515 | 14.44° C | 25% | 1010.5 hPa | 0 mm | - | 418 W/m² | - |
| 1777993912 | 15° C | 30% | 1010.5 hPa | 0 mm | - | 443 W/m² | - |
| 1777993318 | 13.89° C | 25% | 1010.5 hPa | 0 mm | - | 468 W/m² | - |
| 1777992711 | 13.33° C | 26% | 1017.1 hPa | 0 mm | - | 489 W/m² | - |
| 1777992111 | 14.44° C | 26% | 1017.2 hPa | 0 mm | - | 510 W/m² | - |
| 1777991509 | 14.44° C | 28% | 1010.6 hPa | 0 mm | - | 533 W/m² | - |
| 1777990912 | 14.44° C | 33% | 1013 hPa | 0 mm | - | 554 W/m² | - |
| 1777989698 | 15° C | 28% | 1010.7 hPa | 0 mm | - | 591 W/m² | - |
| 1777989101 | 14.44° C | 25% | 1010.5 hPa | 0 mm | - | 612 W/m² | - |
| 1777988498 | 13.89° C | 28% | 1010.5 hPa | 0 mm | - | 628 W/m² | - |
* Rain latest hour (hover to see other rain measurements)
** Current wind speed in m/s (hover to see current wind gust speed)